1508151600.61,13041,16.88,75060.0,18.77,-18.99,-20.49,0,*45
1508151601.83,13042,16.88,75060.5,18.77,-19.13,-20.63,0,*4D
1508151603.08,13043,16.88,75062.0,18.77,-19.61,-20.89,0,*4D
1508151604.32,13044,16.88,75062.0,18.79,-18.99,-20.43,0,*44
1508151605.59,13045,16.88,75060.8,18.79,-19.57,-20.93,0,*4B
1508151606.82,13046,16.88,75062.3,18.79,-18.79,-20.29,0,*44
1508151608.07,13047,16.88,75056.5,18.79,-20.19,-21.73,0,*46
1508151609.36,13048,16.88,75060.5,18.79,-19.57,-20.99,0,*4C
1508151610.59,13049,16.88,75066.0,18.81,-20.49,-21.93,0,*44
1508151611.82,13050,16.88,75062.0,18.79,-20.05,-21.39,0,*43
1508151613.11,13051,16.88,75060.5,18.79,-18.93,-20.19,0,*45
1508151614.4,13052,16.88,75060.3,18.79,-19.61,-20.99,0,*42
1508151615.64,13053,16.88,75060.3,18.81,-19.07,-20.49,0,*49
1508151616.84,13054,16.88,75062.0,18.81,-18.65,-19.99,0,*4C
1508151618.1,13055,16.88,75060.8,18.85,-18.89,-20.15,0,*45
1508151619.3,13056,16.88,75064.3,18.85,-18.73,-19.99,0,*4D
1508151620.51,13057,16.88,75060.0,18.85,-18.65,-19.99,0,*4B
1508151621.78,13058,16.88,75062.8,18.87,-19.95,-21.33,0,*43
1508151623.05,13059,16.88,75064.0,18.87,-20.35,-21.67,0,*43
1508151624.29,13060,16.88,75060.5,18.85,-19.65,-20.93,0,*4E
1508151625.57,13061,16.88,75060.3,18.87,-19.13,-20.53,0,*40
1508151626.8,13062,16.88,75060.3,18.87,-19.03,-20.39,0,*4E
1508151628.05,13063,16.88,75064.5,18.89,-19.31,-20.59,0,*46
1508151629.31,13064,16.88,75062.8,18.87,-19.75,-20.99,0,*43
1508151630.54,13065,16.88,75066.0,18.87,-19.91,-21.43,0,*4E
1508151631.79,13066,16.88,75062.5,18.87,-20.39,-21.83,0,*49
1508151633.03,13067,16.88,75060.8,18.89,-20.89,-22.31,0,*47
1508151634.24,13068,16.88,75064.3,18.85,-20.93,-22.57,0,*4F
1508151635.45,13069,16.88,75062.0,18.85,-21.17,-22.57,0,*43
1508151636.73,13070,16.88,75062.3,18.87,-20.83,-22.21,0,*44
1508151637.97,13071,16.88,75062.0,18.79,-21.43,-22.97,0,*44
1508151639.22,13072,16.88,75062.8,18.79,-23.69,-25.39,0,*4E
1508151640.48,13073,16.88,75062.8,18.77,-24.67,-26.13,0,*43
1508151641.74,13074,16.88,75064.8,18.73,-24.67,-25.81,0,*48
1508151643.0,13075,16.88,75060.3,18.69,-24.15,-25.75,0,*4C
1508151644.28,13076,16.88,75062.5,18.65,-22.17,-23.69,0,*4C
1508151645.52,13077,16.88,75060.5,18.63,-21.97,-23.53,0,*49
1508151646.75,13078,16.88,75058.5,18.63,-22.77,-24.51,0,*4E
1508151647.97,13079,16.88,75060.5,18.59,-23.89,-25.45,0,*42
1508151649.24,13080,16.88,75062.3,18.57,-23.99,-25.49,0,*47
1508151650.49,13081,16.88,75060.0,18.53,-23.85,-25.35,0,*44
1508151651.74,13082,16.88,75062.0,18.51,-22.77,-24.25,0,*49
1508151652.94,13083,16.88,75056.3,18.51,-22.03,-23.59,0,*47
1508151654.14,13084,16.88,75058.5,18.51,-22.37,-23.79,0,*45
1508151655.36,13085,16.88,75060.3,18.49,-23.39,-25.09,0,*43
1508151656.61,13086,16.88,75058.0,18.45,-23.69,-25.23,0,*41
1508151657.84,13087,16.88,75056.5,18.45,-22.93,-24.51,0,*40
1508151659.09,13088,16.88,75060.0,18.41,-23.23,-24.77,0,*45
1508151660.38,13089,16.88,75060.3,18.37,-24.25,-25.75,0,*47
1508151661.67,13090,16.88,75058.8,18.35,-24.71,-26.29,0,*46
1508151662.88,13091,16.88,75062.5,18.33,-22.97,-24.61,0,*41
1508151664.11,13092,16.88,75062.3,18.31,-22.93,-24.47,0,*40
1508151665.36,13093,16.88,75060.0,18.31,-21.67,-23.13,0,*4F
1508151666.59,13094,16.88,75062.8,18.29,-20.53,-21.93,0,*4D
1508151667.81,13095,16.88,75060.3,18.31,-20.25,-21.73,0,*4A
1508151669.05,13096,16.88,75060.8,18.33,-19.81,-21.33,0,*4B
1508151670.25,13097,16.88,75062.0,18.33,-20.89,-22.37,0,*4F
1508151671.49,13098,16.88,75060.0,18.33,-21.83,-23.43,0,*49
1508151672.74,13099,16.88,75062.3,18.31,-20.49,-22.11,0,*4B
1508151673.98,13100,16.88,75062.0,18.33,-20.35,-21.87,0,*4F
1508151675.21,13101,16.88,75062.8,18.33,-19.85,-21.39,0,*4A
1508151676.46,13102,16.88,75064.0,18.33,-19.41,-21.03,0,*48
1508151677.71,13103,16.88,75060.8,18.35,-20.05,-21.53,0,*40
1508151678.95,13104,16.88,75062.8,18.35,-19.81,-21.39,0,*4D
1508151680.23,13105,16.88,75062.0,18.35,-19.65,-21.33,0,*4C
1508151681.45,13106,16.88,75064.0,18.35,-20.69,-22.27,0,*4F
1508151682.68,13107,16.88,75062.0,18.35,-20.69,-22.27,0,*4E
1508151683.93,13108,16.88,75066.0,18.35,-20.09,-21.67,0,*40
1508151685.18,13109,16.88,75066.5,18.35,-21.97,-23.75,0,*46
1508151686.43,13110,16.88,75066.0,18.35,-21.33,-22.87,0,*4C
1508151687.68,13111,16.88,75066.5,18.35,-21.63,-23.19,0,*4E
1508151688.9,13112,16.88,75064.5,18.33,-21.73,-23.29,0,*49
1508151690.13,13113,16.88,75060.8,18.33,-21.23,-22.67,0,*46
1508151691.36,13114,16.88,75064.5,18.35,-21.39,-22.93,0,*47
1508151692.57,13115,16.88,75066.8,18.33,-19.71,-21.17,0,*48
1508151693.78,13116,16.88,75066.3,18.33,-19.07,-20.59,0,*41
1508151695.02,13117,16.88,75064.5,18.33,-20.43,-21.87,0,*48
1508151696.27,13118,16.88,75062.8,18.35,-19.75,-21.27,0,*44
1508151697.55,13119,16.88,75066.8,18.37,-19.31,-20.83,0,*48
1508151698.81,13120,16.88,75062.5,18.37,-18.49,-19.85,0,*40
1508151700.06,13121,16.88,75066.8,18.41,-18.25,-19.65,0,*44
1508151701.31,13122,16.88,75064.5,18.43,-18.01,-19.41,0,*45
1508151702.53,13123,16.88,75064.0,18.47,-17.79,-19.13,0,*47
1508151703.76,13124,16.88,75064.8,18.47,-18.21,-19.61,0,*47
1508151704.98,13125,16.88,75066.8,18.47,-18.35,-19.91,0,*4C
1508151706.24,13126,16.88,75062.8,18.51,-18.01,-19.57,0,*45
1508151707.49,13127,16.88,75062.8,18.53,-18.17,-19.65,0,*40
1508151708.7,13128,16.88,75066.8,18.55,-17.79,-19.07,0,*4A
1508151709.95,13129,16.88,75062.8,18.55,-17.79,-19.31,0,*4E
1508151711.17,13130,16.88,75064.8,18.59,-18.59,-19.91,0,*4D
1508151712.37,13131,16.88,75064.3,18.63,-18.17,-19.51,0,*43
1508151713.58,13132,16.88,75068.5,18.63,-18.83,-20.25,0,*44
1508151714.79,13133,16.88,75066.5,18.63,-19.47,-20.89,0,*4A
1508151715.98,13134,16.88,75066.3,18.63,-19.75,-21.09,0,*45
1508151717.24,13135,16.88,75066.5,18.65,-20.39,-21.67,0,*48
1508151718.47,13136,16.88,75066.0,18.63,-19.31,-20.69,0,*40
1508151719.67,13137,16.88,75066.3,18.63,-19.47,-20.73,0,*4B
1508151720.91,13138,16.88,75064.0,18.65,-19.37,-20.73,0,*45
1508151722.19,13139,16.88,75066.8,18.65,-18.55,-19.65,0,*4C
1508151723.39,13140,16.88,75064.3,18.67,-18.25,-19.37,0,*40
1508151724.62,13141,16.88,75062.5,18.69,-17.87,-19.27,0,*49
1508151725.85,13142,16.88,75066.0,18.67,-18.07,-19.31,0,*44
1508151727.08,13143,16.88,75066.8,18.71,-17.73,-19.13,0,*4E
1508151728.33,13144,16.88,75066.3,18.71,-17.83,-19.23,0,*45
1508151729.58,13145,16.88,75068.0,18.73,-17.63,-18.93,0,*42
1508151730.84,13146,16.88,75060.8,18.75,-18.11,-19.27,0,*43
1508151732.06,13147,16.88,75062.8,18.75,-18.25,-19.47,0,*43
1508151733.27,13148,16.88,75060.0,18.77,-17.83,-19.13,0,*4C
1508151734.52,13149,16.88,75066.8,18.79,-17.79,-19.07,0,*43
1508151735.73,13150,16.88,75062.3,18.81,-17.87,-19.13,0,*48
1508151736.96,13151,16.88,75062.3,18.81,-18.17,-19.41,0,*48
1508151738.19,13152,16.88,75062.5,18.81,-18.45,-19.61,0,*4E
1508151739.43,13153,16.88,75060.3,18.87,-17.83,-19.13,0,*49
1508151740.7,13154,16.88,75060.0,18.87,-17.59,-18.89,0,*4B
1508151741.9,13155,16.88,75060.5,18.89,-17.69,-18.83,0,*4D
1508151743.15,13156,16.88,75060.8,18.93,-17.97,-19.23,0,*4F
1508151744.4,13157,16.88,75062.8,18.91,-17.59,-18.83,0,*45
1508151745.65,13158,16.88,75062.0,18.91,-17.59,-18.79,0,*4F
1508151746.88,13159,16.88,75058.0,18.93,-17.25,-18.49,0,*44
1508151748.14,13160,16.88,75060.8,18.95,-17.45,-18.69,0,*4C
1508151749.37,13161,16.88,75060.5,18.97,-18.45,-19.61,0,*49
1508151750.56,13162,16.88,75062.8,18.97,-17.69,-18.99,0,*4D
1508151751.82,13163,16.88,75058.5,18.99,-18.49,-19.61,0,*49
1508151753.07,13164,16.88,75062.8,18.99,-17.73,-18.93,0,*44
1508151754.31,13165,16.88,75056.8,18.99,-17.79,-18.99,0,*45
1508151755.57,13166,16.88,75062.5,19.01,-17.45,-18.69,0,*46
1508151756.8,13167,16.88,75060.5,19.03,-17.25,-18.49,0,*41
1508151758.03,13168,16.88,75060.3,19.07,-17.41,-18.69,0,*4A
1508151759.25,13169,16.88,75060.3,19.09,-16.97,-18.25,0,*47
1508151760.5,13170,16.88,75060.8,19.09,-16.83,-17.93,0,*48
1508151761.71,13171,16.88,75060.0,19.11,-16.97,-18.21,0,*43
1508151762.94,13172,16.88,75060.3,19.13,-16.79,-17.87,0,*41
1508151764.17,13173,16.88,75062.0,19.13,-16.93,-18.11,0,*44
1508151765.4,13174,16.88,75058.8,19.17,-17.49,-18.73,0,*45
1508151766.65,13175,16.88,75062.0,19.17,-17.07,-18.41,0,*4F
1508151767.9,13176,16.88,75056.5,19.17,-17.25,-18.45,0,*48
1508151769.15,13177,16.88,75060.3,19.21,-16.79,-18.01,0,*44
1508151770.41,13178,16.88,75058.5,19.21,-16.51,-17.83,0,*44
1508151771.61,13179,16.88,75056.8,19.23,-16.55,-17.69,0,*47
1508151772.86,13180,16.88,75056.0,19.25,-17.07,-18.45,0,*40
1508151774.11,13181,16.88,75056.3,19.25,-17.07,-18.41,0,*45
1508151775.34,13182,16.88,75058.8,19.31,-16.69,-17.87,0,*4F
1508151776.54,13183,16.88,75058.5,19.31,-16.55,-17.73,0,*4A
1508151777.78,13184,16.88,75060.0,19.31,-16.51,-17.59,0,*41
1508151779.02,13185,16.88,75056.8,19.33,-16.37,-17.55,0,*4E
1508151780.27,13186,16.88,75056.8,19.35,-17.25,-18.45,0,*47
1508151781.53,13187,16.88,75058.5,19.35,-17.41,-18.69,0,*4A
1508151782.76,13188,16.88,75058.0,19.37,-17.97,-19.13,0,*40
1508151784.02,13189,16.88,75058.0,19.39,-17.63,-18.69,0,*48
1508151785.27,13190,16.88,75056.5,19.39,-17.07,-18.25,0,*4A
1508151786.52,13191,16.88,75058.5,19.39,-17.07,-18.21,0,*4F
1508151787.75,13192,16.88,75054.5,19.39,-16.89,-18.21,0,*4B
1508151788.98,13193,16.88,75056.8,19.41,-17.55,-18.79,0,*48
1508151790.18,13194,16.88,75056.5,19.41,-17.31,-18.45,0,*42
1508151791.43,13195,16.88,75058.8,19.43,-17.11,-18.25,0,*45
1508151792.66,13196,16.88,75058.8,19.43,-16.45,-17.73,0,*4A
1508151793.91,13197,16.88,75060.3,19.47,-16.45,-17.63,0,*4E
1508151795.16,13198,16.88,75054.5,19.45,-16.23,-17.55,0,*46
1508151796.39,13199,16.88,75058.0,19.49,-16.75,-18.01,0,*46
1508151797.65,13200,16.88,75058.5,19.53,-16.69,-18.01,0,*43
1508151798.86,13201,16.88,75052.8,19.53,-16.83,-18.11,0,*47
1508151800.11,13202,16.88,75062.0,19.53,-17.07,-18.31,0,*4B
1508151801.35,13203,16.88,75058.0,19.55,-16.79,-18.11,0,*46
1508151802.62,13204,16.88,75058.8,19.55,-17.59,-18.93,0,*48
1508151803.83,13205,16.88,75058.5,19.57,-18.99,-20.25,0,*4E
1508151805.06,13206,16.88,75060.3,19.57,-18.69,-19.81,0,*46
1508151806.28,13207,16.88,75058.5,19.55,-18.25,-19.47,0,*47
1508151807.51,13208,16.88,75058.8,19.57,-18.07,-19.27,0,*4C
1508151808.76,13209,16.88,75058.3,19.55,-17.25,-18.49,0,*49
1508151810.02,13210,16.88,75056.0,19.59,-16.75,-17.97,0,*45
1508151811.21,13211,16.88,75058.0,19.61,-16.93,-18.21,0,*45
1508151812.41,13212,16.88,75058.3,19.61,-16.97,-18.21,0,*42
1508151813.64,13213,16.88,75056.0,19.61,-16.75,-18.01,0,*4D
1508151814.87,13214,16.88,75058.0,19.63,-17.35,-18.41,0,*49
1508151816.13,13215,16.88,75054.8,19.65,-17.41,-18.69,0,*47
1508151817.36,13216,16.88,75056.0,19.63,-16.79,-18.11,0,*47
1508151818.59,13217,16.88,75058.0,19.65,-16.79,-18.11,0,*40
1508151819.88,13218,16.88,75056.5,19.65,-17.21,-18.55,0,*43
1508151821.09,13219,16.88,75060.0,19.67,-17.63,-19.03,0,*44
1508151822.31,13220,16.88,75058.3,19.67,-17.79,-18.99,0,*47
1508151823.54,13221,16.88,75052.8,19.67,-17.41,-18.73,0,*49
1508151824.8,13222,16.88,75060.3,19.67,-17.93,-19.27,0,*45
1508151826.03,13223,16.88,75060.5,19.67,-18.21,-19.41,0,*42
1508151827.27,13224,16.88,75056.0,19.67,-19.27,-20.43,0,*4A
1508151828.49,13225,16.88,75058.8,19.67,-19.13,-20.25,0,*4C
1508151829.74,13226,16.88,75060.8,19.67,-19.65,-21.03,0,*4B
1508151830.97,13227,16.88,75056.0,19.67,-19.75,-21.03,0,*4B
1508151832.23,13228,16.88,75056.0,19.65,-18.59,-19.75,0,*43
1508151833.48,13229,16.88,75058.3,19.65,-17.79,-19.13,0,*4F
1508151834.74,13230,16.88,75052.0,19.65,-18.11,-19.31,0,*46
1508151835.96,13231,16.88,75058.3,19.65,-17.69,-19.03,0,*46
1508151837.22,13232,16.88,75060.3,19.65,-17.21,-18.45,0,*4A
1508151838.42,13233,16.88,75058.3,19.67,-16.93,-18.21,0,*43
1508151839.62,13234,16.88,75060.3,19.67,-17.35,-18.65,0,*49
1508151840.86,13235,16.88,75058.5,19.69,-18.79,-20.05,0,*4C
1508151842.09,13236,16.88,75056.3,19.69,-18.83,-20.05,0,*4A
1508151843.32,13237,16.88,75060.5,19.69,-18.69,-19.99,0,*40
1508151844.55,13238,16.88,75058.8,19.69,-20.39,-21.73,0,*4E
1508151845.81,13239,16.88,75062.3,19.67,-19.31,-20.53,0,*40
1508151847.04,13240,16.88,75060.0,19.69,-18.21,-19.47,0,*4F
1508151848.29,13241,16.88,75060.3,19.69,-18.07,-19.27,0,*4C
1508151849.52,13242,16.88,75062.8,19.69,-17.31,-18.65,0,*42
1508151850.77,13243,16.88,75062.5,19.69,-17.25,-18.65,0,*46
1508151851.97,13244,16.88,75058.5,19.75,-16.79,-18.17,0,*41
1508151853.2,13245,16.88,75056.8,19.75,-18.99,-20.15,0,*49
1508151854.41,13246,16.88,75060.5,19.71,-18.79,-19.99,0,*4E
1508151855.66,13247,16.88,75062.8,19.71,-17.59,-18.89,0,*42
1508151856.88,13248,16.88,75058.8,19.77,-17.69,-19.13,0,*4A
1508151858.11,13249,16.88,75060.3,19.71,-18.21,-19.65,0,*4F
1508151859.34,13250,16.88,75060.0,19.75,-18.17,-19.65,0,*46
1508151860.56,13251,16.88,75060.3,19.79,-17.79,-19.17,0,*49
1508151861.81,13252,16.88,75058.8,19.77,-18.89,-20.25,0,*4F
1508151863.03,13253,16.88,75060.0,19.77,-20.73,-22.11,0,*45
1508151864.26,13254,16.88,75060.0,19.77,-20.89,-22.27,0,*42
1508151865.48,13255,16.88,75060.0,19.71,-19.81,-21.09,0,*48
1508151866.69,13256,16.88,75060.3,19.71,-18.73,-20.09,0,*46
1508151867.92,13257,16.88,75058.3,19.71,-18.45,-19.85,0,*4C
1508151869.12,13258,16.88,75060.3,19.71,-18.49,-19.99,0,*42
1508151870.36,13259,16.88,75056.3,19.75,-19.31,-20.73,0,*47
1508151871.59,13260,16.88,75060.3,19.71,-19.37,-20.79,0,*45
1508151872.85,13261,16.88,75060.8,19.71,-19.85,-21.23,0,*43
1508151874.13,13262,16.88,75060.3,19.69,-20.79,-22.21,0,*41
1508151875.36,13263,16.88,75058.3,19.67,-21.47,-23.03,0,*43
1508151876.56,13264,16.88,75056.0,19.67,-21.13,-22.57,0,*45
1508151877.81,13265,16.88,75058.3,19.67,-20.83,-22.21,0,*4D
1508151879.07,13266,16.88,75060.3,19.63,-19.31,-20.73,0,*4C
1508151880.3,13267,16.88,75058.0,19.65,-19.75,-21.13,0,*4C
1508151881.55,13268,16.88,75062.0,19.63,-21.73,-23.23,0,*49
1508151882.8,13269,16.88,75058.3,19.63,-20.25,-21.83,0,*42
1508151884.06,13270,16.88,75058.0,19.63,-19.57,-21.17,0,*48
1508151885.26,13271,16.88,75058.5,19.61,-19.71,-21.39,0,*43
1508151886.45,13272,16.88,75058.8,19.61,-20.05,-21.43,0,*44
1508151887.7,13273,16.88,75058.0,19.59,-20.53,-22.11,0,*49
1508151888.98,13274,16.88,75060.0,19.59,-21.67,-23.19,0,*41
1508151890.26,13275,16.88,75056.5,19.59,-20.19,-21.67,0,*43
1508151891.48,13276,16.88,75056.5,19.59,-20.89,-22.41,0,*4E
1508151892.73,13277,16.88,75056.3,19.55,-22.03,-23.49,0,*4A
1508151893.98,13278,16.88,75058.0,19.55,-22.31,-23.79,0,*47
1508151895.2,13279,16.88,75056.0,19.53,-22.03,-23.49,0,*42
1508151896.41,13280,16.88,75058.0,19.49,-21.93,-23.43,0,*4F
1508151897.67,13281,16.88,75058.5,19.47,-21.77,-23.23,0,*4C
1508151898.91,13282,16.88,75058.8,19.45,-23.53,-25.09,0,*47
1508151900.14,13283,16.88,75058.8,19.41,-24.77,-26.55,0,*49
1508151901.4,13284,16.88,75058.5,19.37,-23.53,-25.29,0,*46
1508151902.63,13285,16.88,75056.0,19.37,-23.03,-24.61,0,*4F
1508151903.86,13286,16.88,75056.5,19.33,-22.37,-23.95,0,*42
1508151905.09,13287,16.88,75056.5,19.33,-21.57,-23.13,0,*48
1508151906.34,13288,16.88,75058.5,19.31,-20.83,-22.47,0,*4D
1508151907.54,13289,16.88,75058.0,19.31,-21.39,-22.97,0,*41
1508151908.8,13290,16.88,75058.5,19.27,-21.87,-23.49,0,*49
1508151910.02,13291,16.94,75060.8,19.27,-22.73,-24.31,0,*48
1508151911.25,13292,16.88,75056.8,19.23,-22.57,-24.21,0,*48
1508151912.53,13293,16.88,75056.3,19.25,-21.67,-23.23,0,*4A
1508151913.75,13294,16.88,75058.5,19.21,-21.13,-22.67,0,*4B
1508151914.98,13295,16.88,75056.5,19.19,-21.93,-23.65,0,*4A
1508151916.2,13296,16.88,75056.8,19.19,-22.21,-23.79,0,*4E
1508151917.4,13297,16.88,75058.5,19.19,-22.67,-24.47,0,*47
1508151918.68,13298,16.94,75058.3,19.17,-21.33,-23.03,0,*43
1508151919.91,13299,16.88,75058.5,19.17,-21.39,-23.09,0,*42
1508151921.17,13300,16.88,75058.8,19.15,-21.53,-23.23,0,*45
1508151922.45,13301,16.88,75058.5,19.17,-21.23,-23.03,0,*43
1508151923.7,13302,16.88,75060.0,19.15,-22.17,-23.99,0,*45
1508151924.93,13303,16.88,75060.8,19.11,-23.03,-24.93,0,*49
1508151926.17,13304,16.88,75060.0,19.11,-24.31,-26.13,0,*42
1508151927.4,13305,16.88,75058.8,19.09,-23.79,-25.49,0,*4D
1508151928.63,13306,16.88,75060.8,19.07,-22.87,-24.67,0,*4D
1508151929.85,13307,16.88,75062.3,19.01,-22.67,-24.47,0,*46
1508151931.13,13308,16.94,75062.8,19.01,-22.21,-24.11,0,*48
1508151932.41,13309,16.88,75062.0,18.99,-22.17,-24.25,0,*4B
1508151933.63,13310,16.94,75062.8,18.97,-23.59,-25.49,0,*4D
1508151934.87,13311,16.88,75062.5,18.97,-24.31,-26.13,0,*49
1508151936.1,13312,16.88,75060.5,18.93,-24.21,-25.91,0,*46
1508151937.34,13313,16.88,75062.8,18.91,-26.39,-28.15,0,*4F
1508151938.59,13314,16.88,75060.3,18.87,-26.71,-28.69,0,*48
1508151939.87,13315,16.88,75062.5,18.79,-26.81,-28.79,0,*46
1508151941.11,13316,16.88,75062.3,18.75,-26.65,-28.53,0,*4B
1508151942.4,13317,16.88,75060.8,18.71,-26.77,-28.63,0,*4E
1508151943.6,13318,16.88,75064.0,18.67,-26.61,-28.53,0,*42
1508151944.83,13319,16.88,75064.3,18.63,-26.07,-28.05,0,*44
1508151946.09,13320,16.94,75068.0,18.57,-26.07,-27.99,0,*43
1508151947.31,13321,16.88,75062.3,18.55,-25.81,-27.67,0,*4C
1508151948.53,13322,16.88,75062.3,18.53,-25.35,-27.13,0,*45
1508151949.81,13323,16.88,75060.0,18.49,-23.65,-25.45,0,*4D
1508151951.05,13324,16.94,75066.0,18.49,-25.45,-27.13,0,*4F
1508151952.25,13325,16.88,75062.8,18.47,-25.91,-27.67,0,*4A
1508151953.52,13326,16.94,75064.5,18.45,-25.81,-27.83,0,*40
1508151954.76,13327,16.94,75062.3,18.41,-24.57,-26.39,0,*4F
1508151955.99,13328,16.88,75062.3,18.37,-23.79,-25.49,0,*4E
1508151957.26,13329,16.88,75062.8,18.37,-24.47,-26.29,0,*40
1508151958.53,13330,16.88,75062.8,18.35,-25.29,-27.19,0,*41
1508151959.79,13331,16.94,75060.5,18.31,-24.71,-26.49,0,*4C
1508151961.0,13332,16.88,75058.5,18.29,-24.31,-26.07,0,*48
1508151962.25,13333,16.88,75058.0,18.29,-23.53,-25.29,0,*45
1508151963.5,13334,16.88,75060.5,18.31,-23.65,-25.35,0,*43
1508151964.71,13335,16.88,75060.3,18.29,-22.97,-24.61,0,*47
1508151965.96,13336,16.88,75058.5,18.27,-22.57,-24.15,0,*45
1508151967.19,13337,16.88,75060.3,18.29,-21.47,-23.29,0,*40
1508151968.41,13338,16.88,75060.8,18.29,-21.13,-22.73,0,*40
1508151969.65,13339,16.94,75060.3,18.31,-19.85,-21.43,0,*4C
1508151970.9,13340,16.88,75062.0,18.33,-19.31,-20.89,0,*48
1508151972.16,13341,16.88,75062.8,18.35,-19.61,-21.17,0,*4C
1508151973.39,13342,16.88,75060.8,18.37,-19.13,-20.69,0,*40
1508151974.59,13343,16.88,75056.3,18.43,-19.95,-21.43,0,*45
1508151975.79,13344,16.94,75062.3,18.43,-20.93,-22.53,0,*4C
1508151977.0,13345,16.88,75058.5,18.43,-21.43,-23.09,0,*4F
1508151978.2,13346,16.88,75060.5,18.43,-19.71,-21.39,0,*47
1508151979.45,13347,16.88,75058.0,18.45,-19.47,-21.03,0,*4C
1508151980.67,13348,16.88,75056.0,18.47,-20.99,-22.37,0,*4C
1508151981.87,13349,16.88,75058.0,18.47,-19.91,-21.47,0,*4B
1508151983.07,13350,16.88,75060.3,18.47,-20.69,-22.27,0,*4B
1508151984.27,13351,16.88,75058.3,18.47,-20.63,-22.03,0,*46
1508151985.52,13352,16.94,75062.3,18.49,-19.47,-20.99,0,*46
1508151986.73,13353,16.88,75058.5,18.51,-19.37,-20.93,0,*43
1508151987.94,13354,16.88,75058.8,18.55,-18.99,-20.39,0,*45
1508151989.19,13355,16.88,75056.5,18.55,-18.59,-20.15,0,*46
1508151990.42,13356,16.94,75056.5,18.55,-19.61,-21.17,0,*4C
1508151991.68,13357,16.88,75058.0,18.59,-19.57,-21.27,0,*47
1508151992.91,13358,16.94,75058.3,18.59,-19.91,-21.53,0,*41
1508151994.14,13359,16.94,75060.8,18.59,-20.63,-22.17,0,*44
1508151995.34,13360,16.88,75058.5,18.63,-20.73,-22.11,0,*40
1508151996.56,13361,16.94,75062.3,18.63,-20.83,-22.27,0,*4B
1508151997.79,13362,16.94,75058.5,18.63,-20.25,-21.67,0,*43
1508151999.04,13363,16.94,75060.8,18.65,-19.65,-21.17,0,*4D
1508152000.27,13364,16.88,75058.8,18.65,-19.95,-21.39,0,*49
1508152001.56,13365,16.88,75058.8,18.65,-19.31,-20.83,0,*46
1508152002.81,13366,16.88,75056.5,18.67,-19.41,-20.99,0,*4B
1508152004.02,13367,16.88,75056.3,18.69,-19.13,-20.69,0,*4C
1508152005.26,13368,16.88,75058.5,18.69,-18.89,-20.39,0,*44
1508152006.55,13369,16.88,75058.5,18.71,-19.65,-21.23,0,*45
1508152007.78,13370,16.94,75062.0,18.73,-20.15,-21.63,0,*46
1508152009.0,13371,16.94,75060.0,18.73,-19.85,-21.47,0,*42
1508152010.24,13372,16.88,75062.8,18.73,-19.47,-21.03,0,*4F
1508152011.47,13373,16.94,75062.5,18.73,-20.53,-22.03,0,*42
1508152012.72,13374,16.94,75060.8,18.75,-20.79,-22.27,0,*4D
1508152013.97,13375,16.94,75062.3,18.73,-20.15,-21.83,0,*4D
1508152015.23,13376,16.88,75058.8,18.75,-20.73,-22.17,0,*46
1508152016.46,13377,16.94,75062.3,18.73,-20.43,-21.97,0,*49
1508152017.7,13378,16.88,75060.0,18.73,-19.61,-21.09,0,*4B
1508152018.94,13379,16.94,75060.5,18.77,-18.93,-20.39,0,*40
1508152020.18,13380,16.94,75062.3,18.77,-18.99,-20.53,0,*40
1508152021.41,13381,16.88,75060.8,18.77,-20.63,-22.21,0,*48
1508152022.64,13382,16.94,75062.3,18.77,-20.53,-22.11,0,*4B
1508152023.85,13383,16.94,75062.8,18.77,-20.39,-21.77,0,*45
1508152025.11,13384,16.88,75062.8,18.77,-19.31,-20.83,0,*4A
1508152026.32,13385,16.94,75062.8,18.77,-18.41,-19.95,0,*40
1508152027.57,13386,16.94,75064.5,18.79,-19.13,-20.59,0,*41
1508152028.81,13387,16.94,75060.5,18.85,-18.89,-20.39,0,*47
1508152030.05,13388,16.94,75066.3,18.85,-19.57,-21.17,0,*47
1508152031.29,13389,16.94,75064.5,18.85,-18.89,-20.43,0,*44
1508152032.53,13390,16.88,75060.8,18.87,-18.45,-19.91,0,*4B
1508152033.78,13391,16.88,75058.8,18.87,-18.59,-20.05,0,*40
1508152035.04,13392,16.88,75060.0,18.87,-19.47,-20.99,0,*48
1508152036.25,13393,16.88,75060.8,18.89,-19.91,-21.47,0,*4E
1508152037.46,13394,16.94,75060.8,18.89,-19.75,-21.17,0,*46
1508152038.69,13395,16.94,75066.0,18.89,-19.91,-21.33,0,*4B
1508152039.95,13396,16.88,75062.8,18.91,-19.23,-20.63,0,*4C
1508152041.21,13397,16.94,75064.3,18.91,-18.69,-20.19,0,*4F
1508152042.44,13398,16.94,75062.8,18.93,-18.89,-20.39,0,*4E
1508152043.69,13399,16.94,75062.3,18.93,-19.81,-21.23,0,*4C
1508152044.91,13400,16.94,75060.8,18.93,-19.51,-20.89,0,*47
1508152046.17,13401,16.94,75060.3,18.95,-18.55,-20.05,0,*41
1508152047.42,13402,16.94,75062.8,18.95,-18.55,-20.05,0,*42
1508152048.68,13403,16.94,75064.5,18.99,-18.07,-19.57,0,*45
1508152049.91,13404,16.94,75060.8,18.99,-18.41,-19.71,0,*44
1508152051.17,13405,16.94,75060.5,18.99,-18.99,-20.49,0,*41
1508152052.41,13406,16.94,75062.8,19.03,-19.23,-20.73,0,*49
1508152053.66,13407,16.94,75064.0,18.99,-19.23,-20.69,0,*41
1508152054.9,13408,16.94,75060.5,19.01,-18.99,-20.39,0,*4B
1508152056.14,13409,16.94,75060.0,19.03,-18.17,-19.57,0,*4C
1508152057.37,13410,16.88,75062.0,19.03,-18.79,-20.35,0,*42
1508152058.59,13411,16.94,75062.0,19.03,-20.29,-21.97,0,*44
1508152059.82,13412,16.88,75062.0,19.03,-21.73,-23.49,0,*48
1508152061.07,13413,16.94,75066.8,19.01,-22.37,-24.11,0,*42
1508152062.32,13414,16.94,75062.5,19.01,-22.97,-24.67,0,*4E
1508152063.55,13415,16.94,75064.3,18.97,-22.41,-24.15,0,*4F
1508152064.81,13416,16.94,75060.5,18.93,-22.47,-24.21,0,*49
1508152066.02,13417,16.94,75064.0,18.93,-21.73,-23.43,0,*4F
1508152067.22,13418,16.94,75064.0,18.93,-21.73,-23.39,0,*4D
1508152068.46,13419,16.94,75064.0,18.91,-21.77,-23.43,0,*47
1508152069.69,13420,16.94,75060.8,18.89,-21.33,-22.93,0,*48
1508152070.95,13421,16.94,75060.0,18.91,-19.47,-20.83,0,*4B
1508152072.2,13422,16.94,75060.8,18.91,-18.83,-20.35,0,*4C
1508152073.46,13423,16.94,75060.5,18.91,-18.93,-20.29,0,*41
1508152074.72,13424,16.94,75062.3,18.95,-18.21,-19.65,0,*49
1508152075.97,13425,16.94,75060.0,18.95,-18.25,-19.65,0,*4C
1508152077.18,13426,16.94,75060.0,18.97,-18.73,-20.09,0,*4E
1508152078.43,13427,16.94,75060.3,18.99,-18.01,-19.47,0,*44
1508152079.69,13428,16.94,75058.8,19.01,-18.07,-19.61,0,*49
1508152080.92,13429,16.94,75058.8,19.01,-18.65,-20.05,0,*44
1508152082.15,13430,16.94,75058.5,19.03,-18.89,-20.29,0,*42
1508152083.39,13431,16.94,75062.0,19.03,-18.93,-20.25,0,*44
1508152084.63,13432,16.94,75054.5,19.03,-19.27,-20.63,0,*4B
1508152085.87,13433,16.94,75056.3,19.07,-19.23,-20.59,0,*43
1508152087.16,13434,16.88,75056.3,19.09,-19.31,-20.53,0,*43
1508152088.4,13435,16.94,75058.8,19.07,-19.23,-20.39,0,*43
1508152089.65,13436,16.94,75058.5,19.09,-18.35,-19.71,0,*4E
1508152090.88,13437,16.94,75062.5,19.11,-18.79,-20.15,0,*46
1508152092.11,13438,16.94,75056.3,19.11,-18.55,-19.91,0,*41
1508152093.39,13439,16.94,75058.3,19.13,-18.35,-19.81,0,*45
1508152094.59,13440,16.94,75058.5,19.11,-19.47,-20.93,0,*44